MDT,Max TemperatureF,Mean TemperatureF,Min TemperatureF,Max Dew PointF,MeanDew PointF,Min DewpointF,Max Humidity, Mean Humidity, Min Humidity, Max Sea Level PressureIn, Mean Sea Level PressureIn, Min Sea Level PressureIn, Max VisibilityMiles, Mean VisibilityMiles, Min VisibilityMiles, Max Wind SpeedMPH, Mean Wind SpeedMPH, Max Gust SpeedMPH,PrecipitationIn, CloudCover, Events, WindDirDegrees
2012-10-1,84,67,50,46,41,32,82,43,16,30.18,30.12,30.07,10,10,5,14,6,18,0.00,1,,307
2012-10-2,82,68,53,46,41,37,72,42,20,30.17,30.08,29.97,10,10,10,12,6,16,0.00,0,,27
2012-10-3,89,70,50,39,33,23,62,31,9,30.07,30.01,29.96,10,10,10,15,5,20,0.00,0,,356
2012-10-4,89,70,51,32,29,27,47,22,10,30.21,30.13,30.07,10,10,10,23,7,30,0.00,0,,164
2012-10-5,89,73,57,36,29,23,39,22,10,30.15,30.07,29.99,10,10,10,17,7,25,0.00,0,,182
2012-10-6,82,68,55,41,32,23,37,25,13,30.09,30.01,29.93,10,10,10,17,7,25,0.00,0,,172
2012-10-7,68,58,48,39,37,34,58,47,33,30.18,30.09,29.99,10,10,10,14,9,16,0.00,0,,307
2012-10-8,80,62,44,39,37,32,71,42,20,30.17,30.07,29.98,10,10,9,14,7,16,0.00,0,,162
2012-10-9,82,66,50,32,29,25,47,25,12,30.10,30.04,30.00,10,10,10,10,4,17,0.00,0,,159
2012-10-10,84,67,50,37,31,27,45,27,13,30.18,30.08,30.01,10,10,10,16,5,23,0.00,0,,191
2012-10-11,78,66,53,54,42,37,77,44,24,30.15,30.08,30.05,10,10,5,14,6,20,0.04,1,Rain-Thunderstorm,1
2012-10-12,82,68,55,59,50,34,100,63,23,30.19,30.05,29.95,10,10,4,22,9,31,0.05,2,Rain-Thunderstorm,159
2012-10-13,71,58,46,34,30,25,62,34,17,30.16,30.09,30.02,10,10,10,15,5,16,0.00,0,,10
2012-10-14,77,58,39,37,33,28,81,41,18,30.29,30.22,30.16,10,10,9,12,5,16,0.00,0,,173
2012-10-15,77,60,44,36,32,28,66,36,18,30.23,30.13,30.02,10,10,9,10,5,,0.00,0,,120
2012-10-16,82,68,53,46,34,19,58,34,10,30.02,29.94,29.85,10,10,10,13,6,18,0.00,0,,176
2012-10-17,84,68,51,32,28,23,35,24,12,29.96,29.90,29.85,10,10,2,17,7,29,0.00,0,,152
2012-10-18,80,68,55,32,14,9,38,14,7,30.10,30.03,29.97,10,10,9,17,10,22,0.00,0,Rain,8
2012-10-19,82,62,41,19,17,14,39,20,8,30.11,30.02,29.96,10,10,10,10,5,,0.00,0,,89
2012-10-20,84,66,48,36,27,18,39,24,11,29.99,29.92,29.85,10,10,10,10,6,,0.00,0,,157
2012-10-21,82,68,53,46,36,27,52,32,13,30.05,29.96,29.89,10,10,4,20,7,38,0.00,1,Rain,197
2012-10-22,77,64,51,41,36,30,67,36,19,30.06,29.99,29.95,10,10,10,16,9,20,0.00,0,Rain,167
2012-10-23,82,64,46,36,31,28,50,27,14,30.05,29.98,29.93,10,10,10,15,7,21,0.00,0,,168
2012-10-24,82,68,55,32,27,21,38,23,12,29.98,29.92,29.84,10,10,10,15,6,24,0.00,0,,175
2012-10-25,73,62,50,27,18,10,35,19,9,30.06,30.00,29.92,10,10,10,20,8,26,0.00,0,,347
2012-10-26,62,48,33,28,24,14,56,37,21,30.27,30.19,30.07,10,10,10,13,8,18,0.00,0,,191
2012-10-27,62,45,28,28,25,19,69,44,24,30.26,30.17,30.07,10,10,10,9,5,,0.00,0,,6
2012-10-28,71,52,33,27,22,16,60,35,14,30.21,30.15,30.09,10,10,10,7,4,,0.00,0,,53
2012-10-29,77,57,37,27,20,14,45,26,11,30.24,30.16,30.10,10,10,10,10,3,,0.00,0,Rain,8
2012-10-30,77,56,35,19,16,14,41,21,9,30.17,30.10,30.05,10,10,2,12,5,17,0.00,0,Rain,351
2012-10-31,78,58,37,18,15,12,38,21,9,30.16,30.10,30.06,10,10,9,9,3,,0.00,0,,147